| time (UTC) | temp F | wind direction | speed MPH | gust MPH | rain 1hr in | rain 24hr in | rain mn in | humidity % | barometer mb |
| 20260502193804 | 69 | 44 | 5.0 | 13.0 | 0.00 | 0.00 | 0.00 | 13 | 1016.9 |
| 20260502192804 | 68 | 41 | 3.0 | 10.0 | 0.00 | 0.00 | 0.00 | 16 | 1016.9 |
| 20260502191804 | 69 | 49 | 5.0 | 9.0 | 0.00 | 0.00 | 0.00 | 14 | 1016.9 |
| 20260502190304 | 67 | 34 | 4.0 | 10.0 | 0.00 | 0.00 | 0.00 | 17 | 1016.9 |
| 20260502185804 | 67 | 68 | 6.0 | 10.0 | 0.00 | 0.00 | 0.00 | 17 | 1016.9 |
| 20260502185305 | 66 | 35 | 6.0 | 9.0 | 0.00 | 0.00 | 0.00 | 17 | 1016.9 |
| 20260502184804 | 66 | 287 | 2.0 | 5.0 | 0.00 | 0.00 | 0.00 | 17 | 1016.9 |
| 20260502184304 | 66 | 106 | 5.0 | 8.0 | 0.00 | 0.00 | 0.00 | 18 | 1016.9 |
| 20260502183804 | 65 | 65 | 4.0 | 10.0 | 0.00 | 0.00 | 0.00 | 18 | 1016.9 |
| 20260502182305 | 66 | 56 | 6.0 | 10.0 | 0.00 | 0.00 | 0.00 | 20 | 1016.9 |
| 20260502180804 | 65 | 61 | 5.0 | 8.0 | 0.00 | 0.00 | 0.00 | 18 | 1016.9 |
| 20260502180304 | 65 | 117 | 2.0 | 8.0 | 0.00 | 0.00 | 0.00 | 18 | 1016.9 |
| 20260502170304 | 64 | 8 | 6.0 | 10.0 | 0.00 | 0.00 | 0.00 | 21 | 1016.9 |
| 20260502163804 | 64 | 79 | 3.0 | 7.0 | 0.00 | 0.00 | 0.00 | 22 | 1016.9 |
| 20260502161304 | 61 | 229 | 3.0 | 5.0 | 0.00 | 0.00 | 0.00 | 22 | 1016.9 |
| 20260502150805 | 55 | 255 | 3.0 | 5.0 | 0.00 | 0.00 | 0.00 | 31 | 1016.9 |
| 20260502123304 | 35 | 24 | 1.0 | 2.0 | 0.00 | 0.00 | 0.00 | 67 | 1015.2 |
| 20260502120304 | 34 | 24 | 0.0 | 1.0 | 0.00 | 0.00 | 0.00 | 67 | 1015.2 |
| 20260502111804 | 35 | 24 | 2.0 | 2.0 | 0.00 | 0.00 | 0.00 | 63 | 1015.2 |
| 20260502111304 | 35 | 24 | 1.0 | 2.0 | 0.00 | 0.00 | 0.00 | 63 | 1015.2 |
| 20260502105306 | 35 | 24 | 1.0 | 2.0 | 0.00 | 0.00 | 0.00 | 63 | 1015.2 |
| 20260502104804 | 35 | 24 | 2.0 | 3.0 | 0.00 | 0.00 | 0.00 | 62 | 1015.2 |
| 20260502103304 | 36 | 24 | 2.0 | 2.0 | 0.00 | 0.00 | 0.00 | 60 | 1015.2 |
| 20260502102804 | 36 | 24 | 0.0 | 0.0 | 0.00 | 0.00 | 0.00 | 59 | 1015.2 |
| 20260502100804 | 37 | 24 | 1.0 | 2.0 | 0.00 | 0.00 | 0.00 | 58 | 1015.2 |
| 20260502070304 | 44 | 37 | 1.0 | 2.0 | 0.00 | 0.00 | 0.00 | 43 | 1015.2 |
| 20260502065804 | 44 | 37 | 1.0 | 2.0 | 0.00 | 0.00 | 0.00 | 43 | 1015.2 |
| 20260502065306 | 44 | 37 | 1.0 | 2.0 | 0.00 | 0.00 | 0.00 | 43 | 1015.2 |
| 20260502063304 | 45 | 37 | 0.0 | 1.0 | 0.00 | 0.00 | 0.00 | 41 | 1015.2 |
| 20260502062804 | 46 | 37 | 0.0 | 0.0 | 0.00 | 0.00 | 0.00 | 39 | 1015.2 |
| 20260502060816 | 47 | 37 | 0.0 | 1.0 | 0.00 | 0.00 | 0.00 | 39 | 1015.2 |
| 20260502055804 | 47 | 37 | 0.0 | 1.0 | 0.00 | 0.00 | 0.00 | 38 | 1015.2 |
| 20260502053804 | 47 | 37 | 1.0 | 2.0 | 0.00 | 0.00 | 0.00 | 37 | 1015.2 |
| 20260502052306 | 47 | 37 | 1.0 | 2.0 | 0.00 | 0.00 | 0.00 | 37 | 1015.2 |
| 20260502051304 | 47 | 37 | 0.0 | 0.0 | 0.00 | 0.00 | 0.00 | 36 | 1015.2 |
| 20260502050804 | 48 | 37 | 0.0 | 0.0 | 0.00 | 0.00 | 0.00 | 36 | 1015.2 |
| 20260502045804 | 48 | 37 | 0.0 | 0.0 | 0.00 | 0.00 | 0.00 | 35 | 1015.2 |
| 20260502044304 | 48 | 37 | 0.0 | 0.0 | 0.00 | 0.00 | 0.00 | 34 | 1015.2 |
| 20260502043804 | 48 | 37 | 0.0 | 0.0 | 0.00 | 0.00 | 0.00 | 34 | 1015.2 |
| 20260502042306 | 48 | 37 | 0.0 | 0.0 | 0.00 | 0.00 | 0.00 | 30 | 1015.2 |
| 20260502041804 | 49 | 37 | 0.0 | 0.0 | 0.00 | 0.00 | 0.00 | 30 | 1015.2 |
| 20260502040804 | 49 | 37 | 0.0 | 0.0 | 0.00 | 0.00 | 0.00 | 30 | 1015.2 |
| 20260502035803 | 50 | 37 | 0.0 | 1.0 | 0.00 | 0.00 | 0.00 | 30 | 1015.2 |
| 20260502034804 | 50 | 37 | 0.0 | 1.0 | 0.00 | 0.00 | 0.00 | 29 | 1015.2 |
| 20260502033804 | 52 | 37 | 1.0 | 3.0 | 0.00 | 0.00 | 0.00 | 27 | 1015.2 |
| 20260502033303 | 52 | 37 | 2.0 | 3.0 | 0.00 | 0.00 | 0.00 | 27 | 1015.2 |
| 20260502031803 | 51 | 38 | 3.0 | 5.0 | 0.00 | 0.00 | 0.00 | 28 | 1015.2 |
| 20260502030303 | 52 | 44 | 1.0 | 3.0 | 0.00 | 0.00 | 0.00 | 26 | 1015.2 |
| 20260502025804 | 53 | 44 | 1.0 | 3.0 | 0.00 | 0.00 | 0.00 | 25 | 1015.2 |
| 20260502025306 | 53 | 34 | 2.0 | 5.0 | 0.00 | 0.00 | 0.00 | 26 | 1015.2 |
| 20260502024303 | 52 | 42 | 1.0 | 2.0 | 0.00 | 0.00 | 0.00 | 27 | 1015.2 |
| 20260502023804 | 53 | 42 | 1.0 | 2.0 | 0.00 | 0.00 | 0.00 | 27 | 1015.2 |
| 20260502023304 | 53 | 42 | 1.0 | 2.0 | 0.00 | 0.00 | 0.00 | 26 | 1015.2 |
| 20260502022803 | 54 | 44 | 1.0 | 3.0 | 0.00 | 0.00 | 0.00 | 25 | 1015.2 |
| 20260502022306 | 54 | 48 | 2.0 | 3.0 | 0.00 | 0.00 | 0.00 | 25 | 1015.2 |
| 20260502021305 | 56 | 34 | 1.0 | 3.0 | 0.00 | 0.00 | 0.00 | 23 | 1015.2 |
| 20260502020803 | 56 | 38 | 2.0 | 5.0 | 0.00 | 0.00 | 0.00 | 23 | 1015.2 |
| 20260502015804 | 57 | 34 | 2.0 | 3.0 | 0.00 | 0.00 | 0.00 | 23 | 1015.2 |
| 20260502015305 | 57 | 26 | 2.0 | 3.0 | 0.00 | 0.00 | 0.00 | 23 | 1015.2 |
| 20260502013303 | 59 | 20 | 5.0 | 8.0 | 0.00 | 0.00 | 0.00 | 21 | 1015.2 |
| 20260502011804 | 60 | 17 | 5.0 | 8.0 | 0.00 | 0.00 | 0.00 | 20 | 1015.2 |
| 20260502010804 | 60 | 352 | 5.0 | 9.0 | 0.00 | 0.00 | 0.00 | 20 | 1015.2 |
| 20260502010304 | 60 | 11 | 5.0 | 9.0 | 0.00 | 0.00 | 0.00 | 20 | 1015.2 |
| 20260502005804 | 60 | 344 | 5.0 | 9.0 | 0.00 | 0.00 | 0.00 | 20 | 1015.2 |
| 20260502005306 | 60 | 345 | 6.0 | 12.0 | 0.00 | 0.00 | 0.00 | 20 | 1015.2 |
| 20260502004804 | 60 | 43 | 5.0 | 12.0 | 0.00 | 0.00 | 0.00 | 19 | 1015.2 |
| 20260502004304 | 61 | 14 | 6.0 | 12.0 | 0.00 | 0.00 | 0.00 | 19 | 1015.2 |
| 20260502003803 | 61 | 29 | 5.0 | 16.0 | 0.00 | 0.00 | 0.00 | 19 | 1015.2 |
| 20260502002305 | 62 | 41 | 4.0 | 13.0 | 0.00 | 0.00 | 0.00 | 18 | 1015.2 |
| 20260502001303 | 63 | 20 | 3.0 | 5.0 | 0.00 | 0.00 | 0.00 | 17 | 1015.2 |
| 20260502000804 | 63 | 284 | 5.0 | 9.0 | 0.00 | 0.00 | 0.00 | 18 | 1015.2 |
| 20260501235804 | 62 | 349 | 7.0 | 14.0 | 0.00 | 0.00 | 0.00 | 17 | 1015.2 |
| 20260501234804 | 63 | 270 | 5.0 | 8.0 | 0.00 | 0.00 | 0.00 | 17 | 1015.2 |
| 20260501232804 | 63 | 6 | 5.0 | 12.0 | 0.00 | 0.00 | 0.00 | 16 | 1015.2 |
| 20260501232306 | 64 | 350 | 9.0 | 13.0 | 0.00 | 0.00 | 0.00 | 16 | 1015.2 |
| 20260501231304 | 63 | 320 | 7.0 | 13.0 | 0.00 | 0.00 | 0.00 | 16 | 1015.2 |
| 20260501230804 | 62 | 73 | 7.0 | 16.0 | 0.00 | 0.00 | 0.00 | 16 | 1015.2 |
| 20260501230304 | 63 | 349 | 7.0 | 12.0 | 0.00 | 0.00 | 0.00 | 16 | 1015.2 |
| 20260501224804 | 63 | 316 | 7.0 | 15.0 | 0.00 | 0.00 | 0.00 | 16 | 1015.2 |
| 20260501224304 | 63 | 16 | 9.0 | 15.0 | 0.00 | 0.00 | 0.00 | 16 | 1015.2 |
| 20260501223304 | 62 | 335 | 4.0 | 12.0 | 0.00 | 0.00 | 0.00 | 18 | 1015.2 |
| 20260501222804 | 62 | 24 | 3.0 | 10.0 | 0.00 | 0.00 | 0.00 | 18 | 1015.2 |
| 20260501221803 | 62 | 28 | 9.0 | 15.0 | 0.00 | 0.00 | 0.00 | 16 | 1015.2 |
| 20260501220804 | 62 | 55 | 6.0 | 13.0 | 0.00 | 0.00 | 0.00 | 17 | 1015.2 |
| 20260501220304 | 62 | 22 | 3.0 | 13.0 | 0.00 | 0.00 | 0.00 | 16 | 1015.2 |
| 20260501214304 | 63 | 16 | 7.0 | 16.0 | 0.00 | 0.00 | 0.00 | 17 | 1015.2 |
| 20260501213303 | 62 | 64 | 7.0 | 13.0 | 0.00 | 0.00 | 0.00 | 17 | 1015.2 |
| 20260501210803 | 62 | 130 | 3.0 | 10.0 | 0.00 | 0.00 | 0.00 | 18 | 1015.2 |
| 20260501210304 | 61 | 64 | 8.0 | 13.0 | 0.00 | 0.00 | 0.00 | 17 | 1015.2 |
| 20260501205803 | 61 | 51 | 8.0 | 14.0 | 0.00 | 0.00 | 0.00 | 18 | 1015.2 |
| 20260501205306 | 62 | 52 | 4.0 | 9.0 | 0.00 | 0.00 | 0.00 | 17 | 1015.2 |
| 20260501204804 | 63 | 9 | 6.0 | 12.0 | 0.00 | 0.00 | 0.00 | 17 | 1015.2 |
| 20260501204304 | 63 | 247 | 6.0 | 12.0 | 0.00 | 0.00 | 0.00 | 20 | 1015.2 |
| 20260501203304 | 61 | 8 | 6.0 | 12.0 | 0.00 | 0.00 | 0.00 | 19 | 1015.2 |
| 20260501201804 | 60 | 189 | 2.0 | 12.0 | 0.00 | 0.00 | 0.00 | 19 | 1015.2 |
| 20260501201304 | 61 | 64 | 7.0 | 17.0 | 0.00 | 0.00 | 0.00 | 18 | 1015.2 |
| 20260501200304 | 61 | 34 | 4.0 | 10.0 | 0.00 | 0.00 | 0.00 | 19 | 1015.2 |
| 20260501195306 | 61 | 349 | 5.0 | 10.0 | 0.00 | 0.00 | 0.00 | 21 | 1015.2 |